Location: Unspecified
(0.0000°N, 0.0000°E)
Time: 07:06:38
(UTC+00:00)

Courier 1B Rocket - Visible Passes

Search period start: 28 August 2014 00:00
Search period end: 07 September 2014 00:00
Orbit: 921 x 1202 km, 28.2° (Epoch: 25 August)

Date Brightness Start Highest point End Pass type
(mag) Time Alt. Az. Time Alt. Az. Time Alt. Az.
28 Aug 6.5 19:46:17 10° SSW 19:51:53 27° SSE 19:51:53 27° SSE visible
29 Aug 6.8 18:45:53 10° SSW 18:51:18 20° SSE 18:55:07 14° ESE visible
29 Aug 6.7 20:37:55 10° SW 20:41:31 29° SW 20:41:31 29° SW visible
30 Aug 5.8 19:37:02 10° SW 19:44:19 41° SSE 19:44:49 41° SE visible
30 Aug 7.8 21:30:31 10° WSW 21:31:14 13° WSW 21:31:14 13° WSW visible
31 Aug 6.4 18:36:25 10° SSW 18:42:56 29° SSE 18:48:10 15° ESE visible
31 Aug 6.0 20:29:08 10° WSW 20:34:35 49° SW 20:34:35 49° SW visible
01 Sep 5.4 19:28:03 10° SW 19:35:44 61° SSE 19:37:59 45° E visible
01 Sep 7.5 21:22:18 10° W 21:24:25 19° W 21:24:25 19° W visible
02 Sep 7.4 05:08:41 10° N 05:11:13 12° NNE 05:13:43 10° NE visible
02 Sep 5.9 18:27:14 10° SW 18:34:26 42° SSE 18:41:26 11° E visible
02 Sep 5.7 20:20:38 10° WSW 20:27:51 63° NW 20:27:51 63° NW visible
03 Sep 5.4 19:19:18 10° WSW 19:27:06 89° SSE 19:31:18 31° ENE visible
03 Sep 7.3 21:14:29 10° W 21:17:44 22° WNW 21:17:44 22° WNW visible
04 Sep 7.1 04:58:31 10° NNW 05:03:04 20° NNE 05:07:29 10° ENE visible
04 Sep 5.6 18:18:18 10° SW 18:25:50 62° SSE 18:33:34 10° ENE visible
04 Sep 6.2 20:12:28 10° W 20:19:46 43° NNW 20:21:11 40° N visible
05 Sep 7.4 03:58:37 10° N 04:01:46 14° NNE 04:04:51 10° NE visible
05 Sep 5.8 19:10:52 10° WSW 19:18:28 63° NNW 19:24:36 17° NE visible
05 Sep 7.4 21:07:10 10° WNW 21:11:01 20° NW 21:11:01 20° NW visible
06 Sep 6.5 04:49:03 10° NNW 04:54:48 31° NNE 05:00:17 10° E visible
06 Sep 5.5 18:09:38 10° WSW 18:17:12 89° NNW 18:25:04 10° ENE visible
06 Sep 6.8 20:04:43 10° W 20:11:16 30° NNW 20:14:24 23° N visible
